Location: ČR
(50.0000°N, 15.0000°E)
Time: 23:22:18
(UTC+00:00)

ISS - Pass Details

Date: 29 September 2021
Orbit: 417 x 423 km, 51.6° (Epoch: 21 October)

Event Time Altitude Azimuth Distance (km) Brightness Sun altitude
Rises 18:13:21 0° 286° (WNW) 2,366 2.0 -15.3°
Reaches altitude 10° 18:15:27 10° 286° (WNW) 1,501 0.4 -15.6°
Maximum altitude 18:18:49 83° 199° (SSW) 428 -3.8 -16.2°
Enters shadow 18:19:50 43° 116° (ESE) 605 -3.5 -16.3°
